SCP
0 0 0 0 0 0 0 0 0 0 0 0 0 0 0 0 0 0 0 0 0 0 0 0 0 0 0 0 0 0 0 0 0 0 0 0 0 0 0 0 0 0 0 0
0 0 0 0 0 0 0 0 0 0 0 0 0 0 0 0 0 0 0 0 0 0 0 0 0 0 0 0 0 0 0 0 0 0 0 0 0 0 0 0 0 0 0 0
0 0 0 0 0 0 0 0 0 0 0 0 0 0 0 0 0 0 0 0 0 0 0 0 0 0 0 0 0 0 0 0 0 0 0 0 0 0 0 0 0 0 0 0
0 0 0 0 0 0 0 0 0 0 0 0 0 0 0 0 0 0 0 0 0 0 0 0 0 0 0 0 0 0 0 0 0 0 0 0 0 0 0 0 0 0 0 0
0 0 0 0 0 0 0 0 0 0 0 0 0 0 0 0 0 0 0 -0 0 0 0 0 0 0 0 0 0 0 0 0 0 0 0 0 0 0 0 0 0 0 0 0
0 0 0 0 0 0 0 0 0 0 0 0 0 0 0 0 0 0 -0 -0 0 0 0 0 0 0 0 0 0 0 0 0 0 0 0 0 0 0 0 0 0 0 0 0
0 0 0 0 0 0 0 0 0 0 0 0 0 0 0 0 0 0 0 0 0 0 0 0 0 0 0 0 0 0 0 0 0 0 0 0 0 0 0 0 0 0 0 0
0 0 0 0 0 0 0 0 0 0 0 0 0 0 0 0 0 0 0 0 0 0 0 0 0 0 0 0 0 0 0 0 0 0 0 0 0 0 0 0 0 0 0 0
0 0 0 0 0 0 0 0 0 0 0 0 0 0 0 0 0 0 0 0 0 0 0 0 0 0 0 0 0 0 0 0 0 0 0 0 0 0 0 0 0 0 0 0
0 0 0 0 0 0 0 0 0 0 0 0 0 0 0 0 0 0 0 0 0 0 0 0 0 0 0 0 0 0 0 0 0 0 0 0 0 0 0 0 0 0 0 0
0 0 0 0 0 0 0 0 0 0 0 0 0 0 0 0 0 0 0 0 0 0 0 0 0 0 0 0 0 0 0 0 0 0 0 0 0 0 0 0 0 0 0 0
0 0 0 0 0 0 0 0 0 0 0 0 0 0 0 0 0 0 0 0 0 0 0 0 0 0 0 0 0 0 0 0 0 0 0 0 0 0 0 0 0 0 0 0
0 0 0 0 0 0 0 0 0 0 0 0 0 0 0 0 0 0 0 0 0 0 0 0 0 0 0 0 0 0 0 0 0 0 0 0 0 0 0 0 0 0 0 0
0 0 0 0 0 0 0 0 0 0 0 0 0 0 0 0 0 0 0 0 0 0 0 0 0 0 0 0 0 0 0 0 0 0 0 0 0 0 0 0 0 0 0 0
0 0 0 0 0 0 0 0 0 0 0 0 0 0 0 0 0 0 0 0 0 0 0 0 0 0 0 0 0 0 0 0 0 0 0 0 0 0 0 0 0 0 0 0
0 0 0 0 0 0 0 0 0 0 0 0 0 0 0 0 0 0 0 0 0 0 0 0 0 0 0 0 0 0 0 0 0 0 0 0 0 0 0 0 0 0 0 0
0 0 0 0 0 0 0 0 0 0 0 0 0 0 0 0 0 0 0 0 0 0 0 0 0 0 0 0 0 0 0 0 0 0 0 0 0 0 0 0 0 0 0 0
0 0 0 0 0 0 0 0 0 0 0 0 0 0 0 0 0 0 0 0 0 0 0 0 0 0 0 0 0 0 0 0 0 0 0 0 0 0 0 0 0 0 0 0
0 0 0 0 0 0 0 0 0 0 0 0 0 0 0 0 0 0 0 0 0 0 0 0 0 0 0 0 0 0 0 0 0 0 0 0 0 0 0 0 0 0 0 0
0 0 0 -0 -0 -0 0 0 0 0 0 0 0 0 0 0 0 0 0 0 0 0 0 0 0 0 0 0 0 0 0 0 0 0 0 0 0 0 0 0 0 0 0 0
0 0 -0 -0 -0 -0 -0 -0 -0 -0 0 0 0 0 0 0 0 0 0 0 0 0 0 0 0 0 0 0 0 0 0 0 0 0 0 0 0 0 0 0 0 0 0 0
0 0 -0 -0 -0 -0 -0 -0 -0 -0 0 0 0 0 0 0 0 0 0 0 0 0 0 0 0 0 0 0 0 0 0 0 0 0 0 0 0 0 0 0 0 0 0 0
0 -0 -0 -0 -0 -0 0 0 0 0 0 0 0 0 0 0 0 0 0 0 0 0 0 0 0 0 0 0 0 0 0 0 0 0 0 0 0 0 0 0 0 0 0 0
-0 -0 -0 -0 0 0 0 0 0 0 0 0 0 0 0 0 0 0 0 0 0 0 0 0 0 0 0 0 0 0 0 0 0 0 0 0 0 0 0 0 0 0 0 0
-0 0 0 0 0 0 0 0 0 0 0 0 0 0 0 0 0 0 0 0 0 0 0 0 0 0 0 0 0 0 0 0 0 0 0 0 0 0 0 0 0 0 0 0
0 0 0 0 0 0 0 0 0 0 0 0 0 0 0 0 0 0 0 0 0 0 0 0 0 0 0 0 0 0 0 0 0 0 0 0 0 0 0 0 0 0 0 0
0 0 0 0 0 0 0 0 0 0 0 0 0 0 0 0 0 0 0 0 0 0 0 0 0 0 0 0 0 0 0 0 0 0 0 0 0 0 0 0 0 0 0 0
Wind_Speed
3 2 5 7 11 13 12 11 9 9 9 6 3 2 1 1 1 1 1 1 1 0 0 0 1 1 1 2 2 2 3 4 5 5 5 6 6 7 7 8 8 9 9 10
3 3 4 6 10 14 15 14 12 9 10 4 2 1 1 2 2 2 1 1 1 1 0 1 1 2 2 3 3 3 4 4 5 5 5 6 6 7 7 8 8 8 9 10
4 3 3 8 10 13 11 11 11 13 9 3 3 3 3 3 3 2 2 1 1 1 1 1 2 2 3 3 3 3 4 5 5 5 5 6 6 7 7 8 8 9 9 10
2 4 9 1 1 6 8 7 7 6 4 5 4 2 2 2 2 2 1 1 1 1 2 2 2 3 3 3 3 3 4 5 5 5 6 7 7 7 7 7 8 9 9 10
3 5 5 1 0 2 5 5 5 6 5 3 1 2 2 1 1 1 1 1 2 2 2 2 3 3 3 3 3 4 4 5 6 6 7 7 8 8 8 8 8 8 9 9
3 5 5 1 1 1 3 3 0 3 4 3 4 5 2 1 1 1 2 1 1 2 2 2 3 3 3 3 4 4 5 6 6 7 7 8 9 9 8 8 8 8 9 9
5 5 4 1 1 3 5 1 1 1 2 3 3 1 1 1 2 2 2 2 2 2 2 3 3 3 3 4 5 5 6 6 6 7 7 8 8 8 8 8 8 8 9 9
5 6 4 2 3 3 1 2 1 1 0 1 0 1 1 1 1 2 2 3 3 3 3 3 3 3 4 5 5 6 6 6 7 7 7 6 8 8 8 7 8 8 8 9
4 2 2 2 1 1 1 0 1 1 1 1 1 0 0 1 2 2 2 3 3 3 3 4 4 4 5 6 6 6 6 7 7 7 7 6 7 7 7 6 6 6 6 7
3 2 0 1 1 1 1 1 1 1 1 0 0 0 1 1 2 2 3 3 3 3 4 4 5 5 5 6 6 6 7 7 6 6 6 6 5 5 6 6 6 6 6 7
3 1 1 1 1 1 1 2 2 2 1 1 0 1 1 2 2 3 3 4 4 4 4 6 6 6 6 6 6 7 7 6 6 6 6 6 6 6 7 6 6 7 6 6
3 1 2 1 1 1 1 2 2 2 2 2 1 1 2 2 3 3 3 4 4 5 5 6 6 6 6 6 6 6 6 6 5 5 5 5 6 6 7 8 10 10 10 9
2 2 1 1 1 2 2 2 2 2 1 2 2 1 2 2 3 3 4 4 4 5 6 6 6 7 7 6 6 6 7 6 5 5 5 5 6 6 7 7 8 8 9 10
2 1 0 1 1 2 2 3 3 2 2 2 2 2 2 2 3 3 4 4 5 5 6 6 7 7 7 7 7 7 7 7 6 5 5 5 6 6 6 6 7 6 6 8
2 2 1 1 1 2 2 2 2 3 3 3 2 2 2 2 3 4 4 5 5 5 6 6 7 8 7 7 7 7 6 5 5 5 5 5 5 5 5 6 6 6 6 6
2 1 1 1 1 1 1 1 1 2 3 3 3 3 3 3 4 4 4 5 5 6 6 6 7 8 7 7 7 6 5 7 7 6 5 5 5 5 5 5 5 5 5 5
1 0 0 1 1 2 2 2 2 3 3 3 3 4 4 4 4 4 5 5 5 6 6 7 8 8 7 7 7 5 5 6 7 6 5 5 4 4 4 4 4 4 4 5
2 2 2 3 3 3 3 3 3 3 3 4 4 4 4 4 5 5 6 6 6 6 6 7 7 7 7 7 6 5 5 5 4 4 4 4 4 4 4 4 4 5 4 5
1 1 2 2 3 2 3 3 3 3 4 4 4 4 4 5 5 6 6 6 6 7 7 7 9 8 7 7 7 5 5 5 4 4 4 5 5 4 4 4 4 4 4 4
2 2 2 2 3 2 3 3 3 4 4 4 4 4 4 5 5 6 6 6 5 6 7 8 8 7 6 6 7 4 4 4 4 4 4 4 4 4 4 4 4 4 3 3
3 3 3 3 3 3 3 3 3 4 4 4 4 4 5 6 6 5 5 6 6 6 7 9 6 5 5 6 6 4 4 3 3 3 3 3 4 4 4 4 3 3 3 3
3 3 3 3 3 4 4 3 3 4 4 4 4 5 5 5 5 5 5 5 6 9 7 5 5 6 7 7 4 3 3 3 3 3 3 3 3 4 4 4 3 3 3 3
3 3 3 3 4 4 4 4 4 4 4 4 5 5 5 5 5 5 5 4 5 8 6 5 6 9 8 5 3 3 3 3 3 3 3 3 4 4 4 4 3 3 3 3
3 3 4 4 3 3 4 4 4 4 4 5 4 5 5 5 4 4 4 7 9 9 6 6 9 9 7 3 3 3 3 3 3 3 3 3 3 3 3 3 3 3 3 3
3 3 3 3 3 3 4 4 4 4 4 3 4 4 4 4 4 5 5 6 7 8 5 6 9 8 5 3 3 3 3 3 3 3 3 3 3 3 3 3 3 2 2 2
4 3 3 3 3 3 3 3 3 3 3 4 4 4 4 3 4 4 4 5 6 7 5 4 4 5 3 3 3 3 3 3 4 3 3 3 4 4 3 3 3 2 2 2
3 3 3 3 3 3 3 3 3 4 4 4 4 4 4 4 4 4 4 4 4 4 4 3 3 3 3 3 3 3 3 3 3 3 3 3 3 3 3 3 2 2 2 2
Wind_Direction
261 257 192 205 202 200 211 220 226 230 230 231 237 226 192 178 152 135 119 99 97 75 63 64 16 353 334 316 315 312 300 292 288 288 289 290 290 292 293 291 289 288 287 285
227 224 213 227 220 214 221 226 234 244 246 251 259 245 216 211 192 201 217 259 287 305 315 311 323 326 325 318 317 308 299 297 302 299 295 294 295 295 295 295 294 292 289 289
215 210 201 233 223 216 217 220 225 233 237 204 228 240 237 220 203 206 222 253 270 286 307 317 318 316 310 310 314 310 306 306 306 306 304 303 301 298 295 297 297 295 294 293
179 180 222 217 76 214 217 226 230 240 239 225 237 250 257 244 227 237 260 277 286 300 313 320 325 328 323 318 315 310 309 311 312 311 307 306 303 300 300 299 296 295 294 292
197 219 247 235 188 192 204 227 234 233 238 239 221 229 225 193 224 279 297 297 297 303 306 309 317 326 321 314 314 310 312 312 311 309 306 305 302 300 301 298 297 295 294 294
204 223 229 248 53 271 195 217 182 224 231 219 200 227 205 67 355 345 345 339 338 332 319 314 325 322 311 307 306 307 308 307 305 304 301 300 299 300 299 295 295 297 296 295
216 232 248 7 343 187 206 202 62 211 216 202 214 278 29 20 5 2 355 349 346 341 338 336 330 319 307 305 306 310 307 304 303 302 299 298 298 299 300 298 296 296 296 296
204 221 232 80 150 193 317 36 69 97 127 179 152 65 71 41 17 10 3 355 349 345 341 335 328 320 312 314 317 314 308 303 303 302 302 300 300 301 300 298 295 296 297 299
209 226 35 142 181 312 356 73 19 18 27 119 133 68 357 355 353 353 349 345 341 339 335 332 330 321 310 315 317 313 308 305 306 306 304 303 301 301 301 296 293 295 295 297
214 223 232 163 57 28 35 58 57 40 28 61 157 278 314 330 333 334 336 333 329 328 327 326 328 322 311 311 310 307 306 308 308 306 306 306 302 298 298 295 294 294 296 297
226 251 274 238 309 0 53 55 46 28 10 360 19 300 304 310 315 317 320 323 320 314 313 314 317 315 314 313 310 305 305 306 306 302 301 301 299 297 295 289 291 296 295 295
232 211 233 254 31 2 28 11 11 4 358 358 337 307 309 307 311 312 314 318 317 315 311 310 312 311 314 315 307 302 302 303 302 301 301 299 301 303 298 292 302 300 301 301
328 353 327 33 46 41 19 2 355 345 335 334 338 322 308 308 315 317 317 318 315 312 309 311 312 311 315 313 305 299 297 298 298 297 297 298 299 301 307 310 308 306 310 311
18 12 22 34 16 16 29 27 27 24 9 351 341 334 324 316 315 318 318 318 314 311 312 313 313 313 317 313 306 300 297 294 293 293 293 293 294 297 299 305 310 313 319 322
3 339 303 32 44 36 36 38 28 14 8 358 349 335 323 313 310 311 314 313 310 309 310 312 310 312 318 315 308 302 298 296 295 294 292 292 293 295 297 299 303 308 315 322
333 20 108 110 61 13 9 6 349 330 334 330 329 328 323 312 306 307 312 311 307 308 310 310 307 310 315 313 308 302 298 301 302 297 296 297 297 297 299 301 305 310 315 320
229 234 342 304 313 315 311 306 298 297 305 309 311 315 315 311 307 309 312 313 308 302 303 303 304 308 309 307 304 300 300 302 304 298 295 296 298 299 301 302 304 309 314 323
282 264 257 256 265 282 297 305 303 301 301 303 302 300 300 299 299 303 307 309 308 305 305 305 307 308 307 306 304 298 296 297 299 298 298 301 304 304 305 305 308 311 316 324
325 310 295 288 280 275 283 296 302 302 301 297 294 295 295 294 294 297 300 301 302 304 312 314 313 310 308 308 306 295 295 299 300 301 301 306 306 306 307 306 308 312 315 321
345 337 326 317 311 300 294 298 299 297 296 293 291 292 296 298 298 297 297 293 293 297 304 307 308 307 307 307 307 298 298 299 299 300 303 304 305 307 309 309 310 312 317 322
336 333 329 322 319 316 304 296 293 294 298 295 291 291 294 297 298 295 293 294 301 304 303 305 306 306 308 309 308 302 301 300 299 298 299 302 305 308 311 312 313 316 319 321
323 321 320 318 317 316 315 310 302 296 298 299 298 294 294 296 297 294 285 282 294 304 306 302 304 309 313 311 304 304 304 303 299 297 297 299 302 304 307 310 312 316 317 318
314 312 312 313 312 310 312 312 306 298 294 295 295 294 294 293 292 291 295 297 302 306 307 303 310 314 315 309 302 300 301 300 298 298 298 298 299 301 302 305 307 311 313 314
320 319 316 315 312 307 307 309 307 301 294 292 288 287 288 291 291 286 286 297 306 308 307 308 313 316 316 307 304 302 299 297 296 296 296 296 298 299 300 302 303 305 308 310
317 312 309 309 309 304 301 303 305 303 302 299 299 297 289 282 282 291 295 297 304 309 308 311 317 319 315 306 302 298 295 293 296 296 295 295 297 299 301 301 299 300 304 306
316 312 307 300 293 291 294 296 300 303 305 305 307 307 306 300 292 290 292 298 301 305 305 305 310 314 311 306 302 299 295 297 297 294 293 294 295 296 298 299 296 293 296 299
318 316 313 315 314 307 302 299 298 299 298 295 298 304 307 305 302 302 302 302 305 307 307 306 306 306 305 303 301 297 294 294 293 290 290 290 291 292 295 293 291 290 290 292